Location: Gwatt
(46.7204°N, 7.6223°E)
Time: 00:23:28
(UTC+00:00)

Envisat - Pass Details

Date: 03 December 2020
Orbit: 764 x 766 km, 98.1° (Epoch: 19 January)

Event Time Altitude Azimuth Distance (km) Brightness Sun altitude
Rises 05:42:58 0° 11° (NNE) 3,245 6.2 -12.1°
Reaches altitude 10° 05:45:17 10° 10° (N) 2,314 5.4 -11.7°
Maximum altitude 05:50:23 74° 286° (WNW) 800 2.9 -10.9°
Drops below altitude 10° 05:55:25 10° 203° (SSW) 2,296 5.5 -10.1°
Sets 05:57:43 0° 201° (SSW) 3,218 6.3 -9.7°
